Flag for Poland Weather past 2 weeks in Jastrzębie Zdrój, Poland

Now
61 °F

Overcast.


Feels Like: 61 °F
Forecast: 55 / 74 °F
Wind: 2 mph from West

Location: Ostrava / Mosnov

Current Time: Aug 30, 2014 at 12:11:13 AM

Latest Report: Aug 29, 2014 at 11:00 PM


Visibility: 13 mi

Pressure: 30.04 "Hg

Humidity: 78%

Dew point: 54 °F

Location of Jastrzębie ZdrójLocation

Historic Weather in Jastrzębie Zdrój — Graph

°F

Jastrzębie Zdrój temperature yesterday

Maximum temperature yesterday: 72 °F (at 3:00 PM)
Minimum temperature yesterday: 46 °F (at 5:00 AM)
Average temperature yesterday: 60 °F

Past Weeks' High & Low Weather Summary

 TemperatureHumidityPressure
High74 °F (Aug 18, 3:00 PM)99% (Aug 24, 7:00 AM)30.14 "Hg (Aug 24, 7:00 AM)
Low43 °F (Aug 25, 6:00 AM)42% (Aug 15, 2:00 PM)29.72 "Hg (Aug 26, 6:00 PM)
Average58 °F80%29.97 "Hg
* Reported Aug 14 9:00 PM — Aug 29 9:00 PM, Jastrzębie Zdrój, Weather by CustomWeather, © 2014

Note: Actual official high and low records may vary slightly from our data, if they occured in-between our weather recording intervals... More about our weather records

Advertising

Jastrzębie Zdrój weather history for previous 24 hours

 ConditionsComfort  
Time TempWeatherWind HumidityBarometerVisibility
9:00 PM
Aug 29
65 °FOvercast.2 mph59%30.03 "Hg12 mi
8:00 PM65 °FOvercast.3 mph60%30.03 "Hg12 mi
7:00 PM68 °FOvercast.3 mph55%30.02 "Hg25 mi
6:00 PM70 °FOvercast.5 mph52%30.03 "Hg25 mi
5:00 PM71 °FPartly sunny.6 mph47%30.03 "Hg25 mi
4:00 PM70 °FPartly sunny.6 mph48%30.05 "Hg25 mi
3:00 PM72 °FScattered clouds.7 mph47%30.05 "Hg25 mi
2:00 PM71 °FScattered clouds.6 mph44%30.06 "Hg25 mi
1:00 PM71 °FScattered clouds.6 mph45%30.06 "Hg25 mi
12:00 PM70 °FScattered clouds.6 mph45%30.08 "Hg25 mi
11:00 AM68 °FPassing clouds.6 mph55%30.09 "Hg25 mi
10:00 AM65 °FPassing clouds.N/A64%30.11 "Hg25 mi
9:00 AM56 °FPassing clouds.2 mph81%30.13 "Hg25 mi
8:00 AM52 °FPassing clouds.2 mph89%30.13 "Hg25 mi
7:00 AM47 °FPassing clouds.3 mph95%30.14 "Hg25 mi
6:00 AM46 °FPassing clouds.3 mph93%30.14 "Hg25 mi
5:00 AM46 °FPassing clouds.3 mph95%30.14 "Hg9 mi
4:00 AM49 °FPassing clouds.3 mph93%30.14 "Hg9 mi
3:00 AM47 °FClear.3 mph95%30.14 "Hg9 mi
2:00 AM49 °FClear.3 mph93%30.14 "Hg9 mi
1:00 AM49 °FClear.3 mph93%30.14 "Hg12 mi
12:00 AM49 °FClear.2 mph92%30.14 "Hg12 mi
Weather by CustomWeather, © 2014

See weather overviewHow to use our weather pages